Weather in Poselok Aeroport

Russia / Khabarovsk Krai     59°24′42″N   143°04′02″E
temp.,
°C
wind,
m/s
gust,
m/s
humid.,
%
clouds,
%
prec.,
mm/h
press.,
hPa
HPBL,
m
27 february, sat
sat2701:00−22nnw34720 0.0 102421
04:00−24nnw44720 0.0 102527
07:00−25nnw44731 0.0 102529
10:00−21nnw46720 0.0 1026189
13:00−18nnw45670 0.0 1025298
16:00−17nnw23730 0.0 1023185
19:00−23wnw01770 0.0 102520
22:00−24n12730 0.0 102420
28 february, sun
sun2801:00−25nnw22720 0.0 102420
04:00−25n33770 0.0 102221
07:00−25n237743 0.0 102120
10:00−21nnw457743 0.0 1020161
13:00−17nnw5675100 0.0 1018273
16:00−15nnw4678100 0.0 1016272
19:00−18nw4575100 0.0 101628
22:00−20nnw347595 0.0 101424
1 march, mon
mon101:00−20nnw4674100 0.0 101381
04:00−20nnw6874100 0.0 1012130
07:00−21nnw577499 0.0 101196
10:00−18nnw687199 0.0 1011245
13:00−15nw5771100 0.0 1010337
16:00−15nw5772100 0.0 1009329
19:00−17nw3376100 0.0 101045
22:00−17nw2375100 0.0 101130
2 march, tue
tue201:00−18nnw3492100 0.0 101269
04:00−19nnw3597100 0.3 1012113
07:00−19nnw4698100 0.3 1014142
10:00−18nnw4696100 0.8 1014188
13:00−15nne2491100 0.4 1015476
16:00−15se5691100 0.9 1015644
19:00−18sse2297100 0.1 101622
22:00−19se1199100 0.3 101720
3 march, wed
wed301:00−20ne01100100 0.3 101720
04:00−21s11100100 0.5 101720
07:00−21sse2299100 0.3 101620
10:00−20sse3495100 0.6 1016258
13:00−19sse3388100 0.2 1014456
16:00−20s3390100 0.3 1012404
19:00−25s2298100 0.0 101120
22:00−27nne0010096 0.1 100920